Time,TemperatureF,DewpointF,PressureIn,WindDirection,WindDirectionDegrees,WindSpeedMPH,WindSpeedGustMPH,Humidity,HourlyPrecipIn,Conditions,Clouds,dailyrainin,SolarRadiationWatts/m^2,SoftwareType,DateUTC
2017-03-26 00:05:00,46.5,33.4,29.82,East,82,4.0,5.0,60,0.00,,,0.00,0,Wunderground v.1.15,2017-03-26 06:05:00,
2017-03-26 00:10:00,46.4,33.7,29.82,East,81,3.0,3.0,61,0.00,,,0.00,0,Wunderground v.1.15,2017-03-26 06:10:00,
2017-03-26 00:15:00,46.4,33.7,29.82,East,82,1.0,3.0,61,0.00,,,0.00,0,Wunderground v.1.15,2017-03-26 06:15:00,
2017-03-26 00:25:00,46.2,33.5,29.82,East,81,0.0,0.0,61,0.00,,,0.00,0,Wunderground v.1.15,2017-03-26 06:25:00,
2017-03-26 00:35:00,45.9,33.6,29.81,East,80,0.0,0.0,62,0.00,,,0.00,0,Wunderground v.1.15,2017-03-26 06:35:00,
2017-03-26 00:45:00,45.4,32.7,29.81,East,80,0.0,2.0,61,0.00,,,0.00,0,Wunderground v.1.15,2017-03-26 06:45:00,
2017-03-26 00:55:00,44.5,32.3,29.81,ENE,78,1.0,1.0,62,0.00,,,0.00,0,Wunderground v.1.15,2017-03-26 06:55:00,
2017-03-26 01:00:00,44.2,32.4,29.81,NE,38,1.0,1.0,63,0.00,,,0.00,0,Wunderground v.1.15,2017-03-26 07:00:00,
2017-03-26 01:05:00,44.0,32.6,29.81,NE,36,1.0,5.0,64,0.00,,,0.00,0,Wunderground v.1.15,2017-03-26 07:05:00,
2017-03-26 01:15:00,44.0,33.0,29.81,NNW,341,2.0,3.0,65,0.00,,,0.00,0,Wunderground v.1.15,2017-03-26 07:15:00,
2017-03-26 01:20:00,44.2,32.8,29.81,NNW,327,4.0,6.0,64,0.00,,,0.00,0,Wunderground v.1.15,2017-03-26 07:20:00,
2017-03-26 01:25:00,44.3,33.3,29.80,NNW,348,6.0,8.0,65,0.00,,,0.00,0,Wunderground v.1.15,2017-03-26 07:25:00,
2017-03-26 01:35:00,45.2,33.7,29.81,NNW,339,9.0,10.0,64,0.00,,,0.00,0,Wunderground v.1.15,2017-03-26 07:35:00,
2017-03-26 01:40:00,45.7,33.8,29.81,NNW,342,9.0,10.0,63,0.00,,,0.00,0,Wunderground v.1.15,2017-03-26 07:40:00,
2017-03-26 01:50:00,46.3,33.6,29.81,NNW,340,9.0,9.0,61,0.00,,,0.00,0,Wunderground v.1.15,2017-03-26 07:50:00,
2017-03-26 01:55:00,46.5,33.8,29.81,NNW,341,9.0,9.0,61,0.00,,,0.00,0,Wunderground v.1.15,2017-03-26 07:55:00,
2017-03-26 02:05:00,46.6,33.4,29.81,NNW,329,9.0,9.0,60,0.00,,,0.00,0,Wunderground v.1.15,2017-03-26 08:05:00,
2017-03-26 02:15:00,47.7,34.1,29.80,NW,323,9.0,10.0,59,0.00,,,0.00,0,Wunderground v.1.15,2017-03-26 08:15:00,
2017-03-26 02:20:00,48.1,34.0,29.80,NW,319,9.0,10.0,58,0.00,,,0.00,0,Wunderground v.1.15,2017-03-26 08:20:00,
2017-03-26 02:30:00,48.6,34.0,29.80,NNW,332,8.0,8.0,57,0.00,,,0.00,0,Wunderground v.1.15,2017-03-26 08:30:00,
2017-03-26 02:35:00,48.6,34.0,29.80,North,350,7.0,8.0,57,0.00,,,0.00,0,Wunderground v.1.15,2017-03-26 08:35:00,
2017-03-26 02:40:00,48.0,33.5,29.80,NNE,29,4.0,4.0,57,0.00,,,0.00,0,Wunderground v.1.15,2017-03-26 08:40:00,
2017-03-26 02:50:00,46.6,33.0,29.79,NE,48,1.0,1.0,59,0.00,,,0.00,0,Wunderground v.1.15,2017-03-26 08:50:00,
2017-03-26 02:55:00,46.2,33.1,29.79,NNE,29,1.0,3.0,60,0.00,,,0.00,0,Wunderground v.1.15,2017-03-26 08:55:00,
2017-03-26 03:00:00,46.1,33.8,29.79,North,9,1.0,1.0,62,0.00,,,0.00,0,Wunderground v.1.15,2017-03-26 09:00:00,
2017-03-26 03:10:00,46.8,34.5,29.79,North,355,4.0,4.0,62,0.00,,,0.00,0,Wunderground v.1.15,2017-03-26 09:10:00,
2017-03-26 03:20:00,46.7,33.5,29.78,North,360,1.0,2.0,60,0.00,,,0.00,0,Wunderground v.1.15,2017-03-26 09:20:00,
2017-03-26 03:25:00,46.5,33.4,29.78,North,355,2.0,3.0,60,0.00,,,0.00,0,Wunderground v.1.15,2017-03-26 09:25:00,
2017-03-26 03:30:00,46.1,33.0,29.78,NNE,28,3.0,3.0,60,0.00,,,0.00,0,Wunderground v.1.15,2017-03-26 09:30:00,
2017-03-26 03:35:00,45.9,32.8,29.78,NNW,341,4.0,4.0,60,0.00,,,0.00,0,Wunderground v.1.15,2017-03-26 09:35:00,
2017-03-26 03:45:00,45.1,32.8,29.78,North,360,4.0,5.0,62,0.00,,,0.00,0,Wunderground v.1.15,2017-03-26 09:45:00,
2017-03-26 03:50:00,44.9,33.1,29.78,North,355,4.0,6.0,63,0.00,,,0.00,0,Wunderground v.1.15,2017-03-26 09:50:00,
2017-03-26 03:55:00,44.7,33.3,29.78,NNW,342,5.0,9.0,64,0.00,,,0.00,0,Wunderground v.1.15,2017-03-26 09:55:00,
2017-03-26 04:05:00,44.7,34.0,29.78,NNW,327,7.0,11.0,66,0.00,,,0.00,0,Wunderground v.1.15,2017-03-26 10:05:00,
2017-03-26 04:15:00,45.2,34.5,29.78,NNW,332,11.0,12.0,66,0.00,,,0.00,0,Wunderground v.1.15,2017-03-26 10:15:00,
2017-03-26 04:25:00,46.0,34.9,29.77,NW,317,12.0,12.0,65,0.00,,,0.00,0,Wunderground v.1.15,2017-03-26 10:25:00,
2017-03-26 04:30:00,46.1,35.0,29.78,North,351,12.0,12.0,65,0.00,,,0.00,0,Wunderground v.1.15,2017-03-26 10:30:00,
2017-03-26 04:35:00,46.0,34.5,29.78,North,350,13.0,13.0,64,0.00,,,0.00,0,Wunderground v.1.15,2017-03-26 10:35:00,
2017-03-26 04:45:00,45.1,33.6,29.78,North,349,10.0,12.0,64,0.00,,,0.00,0,Wunderground v.1.15,2017-03-26 10:45:00,
2017-03-26 04:50:00,44.7,33.6,29.78,NNW,348,8.0,8.0,65,0.00,,,0.00,0,Wunderground v.1.15,2017-03-26 10:50:00,
2017-03-26 05:00:00,44.3,34.0,29.78,North,350,8.0,8.0,67,0.00,,,0.00,0,Wunderground v.1.15,2017-03-26 11:00:00,
2017-03-26 05:05:00,44.3,34.4,29.78,NNW,343,9.0,9.0,68,0.00,,,0.00,0,Wunderground v.1.15,2017-03-26 11:05:00,
2017-03-26 05:15:00,44.6,35.1,29.78,North,355,7.0,14.0,69,0.00,,,0.00,0,Wunderground v.1.15,2017-03-26 11:15:00,
2017-03-26 05:25:00,45.0,35.1,29.78,North,355,9.0,11.0,68,0.00,,,0.00,0,Wunderground v.1.15,2017-03-26 11:25:00,
2017-03-26 05:35:00,45.3,35.0,29.78,North,350,8.0,9.0,67,0.00,,,0.00,0,Wunderground v.1.15,2017-03-26 11:35:00,
2017-03-26 05:40:00,45.2,35.3,29.78,North,350,6.0,6.0,68,0.00,,,0.00,0,Wunderground v.1.15,2017-03-26 11:40:00,
2017-03-26 05:50:00,45.1,35.2,29.79,NNW,348,8.0,8.0,68,0.00,,,0.00,0,Wunderground v.1.15,2017-03-26 11:50:00,
2017-03-26 06:00:00,44.9,35.0,29.79,North,360,6.0,8.0,68,0.00,,,0.00,0,Wunderground v.1.15,2017-03-26 12:00:00,
2017-03-26 06:05:00,44.7,35.1,29.79,NNW,338,7.0,8.0,69,0.00,,,0.00,0,Wunderground v.1.15,2017-03-26 12:05:00,
2017-03-26 06:15:00,44.5,35.0,29.79,NNW,340,9.0,10.0,69,0.00,,,0.00,0,Wunderground v.1.15,2017-03-26 12:15:00,
2017-03-26 06:20:00,44.5,35.3,29.79,North,349,10.0,14.0,70,0.00,,,0.00,0,Wunderground v.1.15,2017-03-26 12:20:00,
2017-03-26 06:25:00,44.4,35.2,29.79,NNW,329,9.0,14.0,70,0.00,,,0.00,0,Wunderground v.1.15,2017-03-26 12:25:00,
2017-03-26 06:30:00,44.4,35.2,29.79,NNE,24,9.0,9.0,70,0.00,,,0.00,0,Wunderground v.1.15,2017-03-26 12:30:00,
2017-03-26 06:40:00,44.6,35.8,29.79,NNW,339,10.0,12.0,71,0.00,,,0.00,0,Wunderground v.1.15,2017-03-26 12:40:00,
2017-03-26 06:50:00,45.2,36.4,29.80,North,355,11.0,11.0,71,0.00,,,0.00,0,Wunderground v.1.15,2017-03-26 12:50:00,
2017-03-26 06:55:00,45.3,36.4,29.80,North,355,9.0,11.0,71,0.00,,,0.00,0,Wunderground v.1.15,2017-03-26 12:55:00,
2017-03-26 07:05:00,45.5,36.6,29.81,NNW,348,9.0,10.0,71,0.00,,,0.00,5,Wunderground v.1.15,2017-03-26 13:05:00,
2017-03-26 07:15:00,45.4,36.2,29.81,NNW,344,9.0,14.0,70,0.00,,,0.00,14,Wunderground v.1.15,2017-03-26 13:15:00,
2017-03-26 07:25:00,45.2,36.0,29.82,NNW,342,6.0,8.0,70,0.00,,,0.00,28,Wunderground v.1.15,2017-03-26 13:25:00,
2017-03-26 07:35:00,45.1,36.3,29.82,North,355,3.0,10.0,71,0.00,,,0.00,42,Wunderground v.1.15,2017-03-26 13:35:00,
2017-03-26 07:45:00,45.2,36.4,29.82,NW,324,7.0,10.0,71,0.00,,,0.00,63,Wunderground v.1.15,2017-03-26 13:45:00,
2017-03-26 07:55:00,45.3,36.4,29.82,North,350,7.0,9.0,71,0.00,,,0.00,81,Wunderground v.1.15,2017-03-26 13:55:00,
2017-03-26 08:05:00,45.5,36.3,29.83,North,5,8.0,8.0,70,0.00,,,0.00,74,Wunderground v.1.15,2017-03-26 14:05:00,
2017-03-26 08:10:00,45.5,36.3,29.83,NNW,346,8.0,13.0,70,0.00,,,0.00,100,Wunderground v.1.15,2017-03-26 14:10:00,
2017-03-26 08:20:00,45.8,36.6,29.83,NNE,17,11.0,11.0,70,0.00,,,0.00,188,Wunderground v.1.15,2017-03-26 14:20:00,
2017-03-26 08:25:00,46.0,36.8,29.83,North,355,8.0,11.0,70,0.00,,,0.00,220,Wunderground v.1.15,2017-03-26 14:25:00,
2017-03-26 08:35:00,46.6,36.6,29.83,NNW,334,8.0,10.0,68,0.00,,,0.00,93,Wunderground v.1.15,2017-03-26 14:35:00,
2017-03-26 08:45:00,46.9,36.5,29.83,NE,40,6.0,6.0,67,0.00,,,0.00,98,Wunderground v.1.15,2017-03-26 14:45:00,
2017-03-26 08:55:00,47.0,36.2,29.84,North,351,4.0,12.0,66,0.00,,,0.00,104,Wunderground v.1.15,2017-03-26 14:55:00,
2017-03-26 09:05:00,47.1,36.3,29.84,NE,51,4.0,7.0,66,0.00,,,0.00,127,Wunderground v.1.15,2017-03-26 15:05:00,
2017-03-26 09:10:00,47.3,36.5,29.84,NNE,15,5.0,5.0,66,0.00,,,0.00,165,Wunderground v.1.15,2017-03-26 15:10:00,
2017-03-26 09:20:00,47.8,36.6,29.84,NNE,15,6.0,6.0,65,0.00,,,0.00,207,Wunderground v.1.15,2017-03-26 15:20:00,
2017-03-26 09:25:00,48.1,36.9,29.84,North,5,5.0,6.0,65,0.00,,,0.00,207,Wunderground v.1.15,2017-03-26 15:25:00,
2017-03-26 09:35:00,48.8,37.2,29.85,NNE,13,4.0,4.0,64,0.00,,,0.00,202,Wunderground v.1.15,2017-03-26 15:35:00,
2017-03-26 09:40:00,49.0,37.3,29.85,North,349,3.0,5.0,64,0.00,,,0.00,202,Wunderground v.1.15,2017-03-26 15:40:00,
2017-03-26 09:50:00,48.9,36.9,29.85,North,5,4.0,4.0,63,0.00,,,0.00,192,Wunderground v.1.15,2017-03-26 15:50:00,
2017-03-26 09:55:00,48.7,36.7,29.85,NNW,344,4.0,8.0,63,0.00,,,0.00,142,Wunderground v.1.15,2017-03-26 15:55:00,
2017-03-26 10:00:00,48.4,36.4,29.85,North,360,6.0,6.0,63,0.00,,,0.00,116,Wunderground v.1.15,2017-03-26 16:00:00,
2017-03-26 10:05:00,48.2,36.6,29.86,NNW,342,5.0,6.0,64,0.00,,,0.00,97,Wunderground v.1.15,2017-03-26 16:05:00,
2017-03-26 10:15:00,47.8,36.6,29.86,North,9,5.0,6.0,65,0.00,,,0.00,91,Wunderground v.1.15,2017-03-26 16:15:00,
2017-03-26 10:25:00,47.0,37.4,29.86,NE,41,7.0,8.0,69,0.00,,,0.00,188,Wunderground v.1.15,2017-03-26 16:25:00,
2017-03-26 10:35:00,46.9,38.0,29.86,NE,38,8.0,15.0,71,0.00,,,0.00,202,Wunderground v.1.15,2017-03-26 16:35:00,
2017-03-26 10:40:00,46.9,38.3,29.86,NNE,13,7.0,9.0,72,0.00,,,0.00,160,Wunderground v.1.15,2017-03-26 16:40:00,
2017-03-26 10:50:00,47.1,38.2,29.87,NNE,32,9.0,12.0,71,0.00,,,0.00,172,Wunderground v.1.15,2017-03-26 16:50:00,
2017-03-26 10:55:00,47.1,37.4,29.87,NNE,31,10.0,12.0,69,0.00,,,0.00,185,Wunderground v.1.15,2017-03-26 16:55:00,
2017-03-26 11:05:00,47.4,37.4,29.86,ENE,69,11.0,12.0,68,0.00,,,0.00,264,Wunderground v.1.15,2017-03-26 17:05:00,
2017-03-26 11:10:00,47.7,37.7,29.86,NE,39,10.0,14.0,68,0.00,,,0.00,294,Wunderground v.1.15,2017-03-26 17:10:00,
2017-03-26 11:15:00,47.9,37.5,29.86,ENE,67,10.0,14.0,67,0.00,,,0.00,323,Wunderground v.1.15,2017-03-26 17:15:00,
2017-03-26 11:25:00,48.8,37.2,29.86,NE,40,6.0,14.0,64,0.00,,,0.00,359,Wunderground v.1.15,2017-03-26 17:25:00,
2017-03-26 11:30:00,48.9,36.9,29.86,NE,39,6.0,9.0,63,0.00,,,0.00,380,Wunderground v.1.15,2017-03-26 17:30:00,
2017-03-26 11:40:00,49.6,37.1,29.85,NNE,20,7.0,7.0,62,0.00,,,0.00,441,Wunderground v.1.15,2017-03-26 17:40:00,
2017-03-26 11:45:00,49.9,37.4,29.85,NE,48,8.0,8.0,62,0.00,,,0.00,462,Wunderground v.1.15,2017-03-26 17:45:00,
2017-03-26 11:55:00,50.5,37.5,29.85,NE,42,8.0,9.0,61,0.00,,,0.00,659,Wunderground v.1.15,2017-03-26 17:55:00,
2017-03-26 12:05:00,50.0,36.7,29.85,NE,54,8.0,9.0,60,0.00,,,0.00,473,Wunderground v.1.15,2017-03-26 18:05:00,
2017-03-26 12:10:00,49.7,36.8,29.85,NE,38,8.0,11.0,61,0.00,,,0.00,411,Wunderground v.1.15,2017-03-26 18:10:00,
2017-03-26 12:20:00,49.7,37.6,29.86,ENE,76,7.0,7.0,63,0.00,,,0.00,522,Wunderground v.1.15,2017-03-26 18:20:00,
2017-03-26 12:30:00,50.0,37.1,29.86,ENE,67,7.0,11.0,61,0.00,,,0.00,520,Wunderground v.1.15,2017-03-26 18:30:00,
2017-03-26 12:35:00,50.1,37.2,29.86,NE,46,9.0,11.0,61,0.00,,,0.00,529,Wunderground v.1.15,2017-03-26 18:35:00,
2017-03-26 12:45:00,52.0,38.1,29.86,ENE,63,9.0,13.0,59,0.00,,,0.00,1025,Wunderground v.1.15,2017-03-26 18:45:00,
2017-03-26 12:50:00,53.4,38.5,29.86,NE,56,9.0,17.0,57,0.00,,,0.00,1099,Wunderground v.1.15,2017-03-26 18:50:00,
2017-03-26 13:00:00,53.1,38.3,29.86,ENE,63,12.0,12.0,57,0.00,,,0.00,1127,Wunderground v.1.15,2017-03-26 19:00:00,
2017-03-26 13:05:00,53.1,37.8,29.86,ENE,69,12.0,12.0,56,0.00,,,0.00,1071,Wunderground v.1.15,2017-03-26 19:05:00,
2017-03-26 13:15:00,53.6,37.8,29.86,NNE,20,11.0,13.0,55,0.00,,,0.00,431,Wunderground v.1.15,2017-03-26 19:15:00,
2017-03-26 13:20:00,53.6,38.3,29.87,NE,39,11.0,11.0,56,0.00,,,0.00,548,Wunderground v.1.15,2017-03-26 19:20:00,
2017-03-26 13:30:00,53.3,38.0,29.87,NNE,29,11.0,11.0,56,0.00,,,0.00,1013,Wunderground v.1.15,2017-03-26 19:30:00,
2017-03-26 13:35:00,53.7,38.4,29.87,NNE,21,12.0,18.0,56,0.00,,,0.00,1021,Wunderground v.1.15,2017-03-26 19:35:00,
2017-03-26 13:45:00,52.9,37.2,29.87,ENE,57,12.0,20.0,55,0.00,,,0.00,387,Wunderground v.1.15,2017-03-26 19:45:00,
2017-03-26 13:55:00,51.5,36.8,29.88,NE,38,12.0,17.0,57,0.00,,,0.00,399,Wunderground v.1.15,2017-03-26 19:55:00,
2017-03-26 14:00:00,51.0,36.7,29.88,North,5,12.0,12.0,58,0.00,,,0.00,482,Wunderground v.1.15,2017-03-26 20:00:00,
2017-03-26 14:10:00,51.3,36.6,29.88,ENE,67,10.0,10.0,57,0.00,,,0.00,439,Wunderground v.1.15,2017-03-26 20:10:00,
2017-03-26 14:20:00,50.7,35.6,29.88,ENE,76,8.0,8.0,56,0.00,,,0.00,485,Wunderground v.1.15,2017-03-26 20:20:00,
2017-03-26 14:25:00,50.6,36.4,29.88,NE,46,8.0,10.0,58,0.00,,,0.00,599,Wunderground v.1.15,2017-03-26 20:25:00,
2017-03-26 14:35:00,53.3,37.5,29.88,NE,56,7.0,8.0,55,0.00,,,0.00,1007,Wunderground v.1.15,2017-03-26 20:35:00,
2017-03-26 14:45:00,53.1,35.9,29.88,NE,36,8.0,8.0,52,0.00,,,0.00,392,Wunderground v.1.15,2017-03-26 20:45:00,
2017-03-26 14:55:00,52.3,35.7,29.88,NE,56,7.0,15.0,53,0.00,,,0.00,353,Wunderground v.1.15,2017-03-26 20:55:00,
2017-03-26 15:00:00,51.6,35.0,29.88,ENE,72,11.0,16.0,53,0.00,,,0.00,506,Wunderground v.1.15,2017-03-26 21:00:00,
2017-03-26 15:05:00,51.5,34.9,29.88,NE,49,12.0,16.0,53,0.00,,,0.00,332,Wunderground v.1.15,2017-03-26 21:05:00,
2017-03-26 15:15:00,51.8,35.7,29.88,NE,44,8.0,15.0,54,0.00,,,0.00,234,Wunderground v.1.15,2017-03-26 21:15:00,
2017-03-26 15:20:00,51.7,35.1,29.88,ENE,67,8.0,8.0,53,0.00,,,0.00,221,Wunderground v.1.15,2017-03-26 21:20:00,
2017-03-26 15:30:00,51.3,35.2,29.88,NE,51,6.0,6.0,54,0.00,,,0.00,141,Wunderground v.1.15,2017-03-26 21:30:00,
2017-03-26 15:40:00,51.2,35.6,29.88,NNW,344,6.0,6.0,55,0.00,,,0.00,202,Wunderground v.1.15,2017-03-26 21:40:00,
2017-03-26 15:45:00,51.3,36.1,29.89,NE,37,6.0,9.0,56,0.00,,,0.00,144,Wunderground v.1.15,2017-03-26 21:45:00,
2017-03-26 15:50:00,50.8,37.4,29.89,NE,36,5.0,6.0,60,0.00,,,0.00,91,Wunderground v.1.15,2017-03-26 21:50:00,
2017-03-26 16:00:00,48.9,37.6,29.90,NE,39,7.0,7.0,65,0.00,,,0.00,67,Wunderground v.1.15,2017-03-26 22:00:00,
2017-03-26 16:05:00,48.2,38.1,29.90,NNE,32,4.0,7.0,68,0.00,,,0.00,65,Wunderground v.1.15,2017-03-26 22:05:00,
2017-03-26 16:15:00,47.2,38.6,29.91,ENE,60,1.0,7.0,72,0.00,,,0.00,102,Wunderground v.1.15,2017-03-26 22:15:00,